Tracking 29089 objects as of 12-Jul-2024
HD Live streaming from Space Station
objects crossing your sky now

COSMOS 1275 DEB

Track COSMOS 1275 DEB now!
10-day predictions


NORAD ID: 15780
Int'l Code: 1981-053KH
Perigee: 882.5 km
Apogee: 965.1 km
Inclination: 82.8 °
Period: 103.3 minutes
Semi major axis: 7294 km
RCS: 0.022 m2 (small)
Launch date: June 4, 1981
Source: Commonwealth of Independent States (former USSR) (CIS)
Launch site: PLESETSK MISSILE AND SPACE COMPLEX (PKMTR)

Note: This is SATELLITE DEBRIS
Your satellite tracking list
Your tracking list is empty




NASA's NSSDC Master Catalog

Two Line Element Set (TLE):
1 15780U 81053KE  24193.74036833  .00001646  00000-0  12298-2 0  9992
2 15780  82.8152  81.3211 0056615  15.2928  49.4020 13.93428231981851
Source of the keplerian elements: AFSPC